Voltar ao catálogo

ATLAS CENTAUR R/B

AtivoGTO
NORAD 8840·ROCKET BODY·🇺🇸 United States

Lançado May 13, 1976 de Cape Canaveral Space Force Station

Loading…

TLE

EnvelhecendoSource: Space-Track

Época: Sep 14, 2026, 01:59 UTC

1 08840U 76042B   26257.08325611  .00000013  00000-0  31196-3 0  9994
2 08840  20.9520 161.9738 7185773 306.5981 144.0583  2.22576598293358

Acompanhe ATLAS CENTAUR R/B em tempo real com AllMySat

Download on the App Store